Theta_e
313 313 313 313 313 313 313 313 313 312 313 313 313 312 313 313 312 300 295 301 306 314 316 309 306 301 301 297 298 297 289 286 287 287 288 291 293 299 302 299 302 303 307 320 345
313 313 313 313 313 312 312 312 312 312 312 313 312 312 312 312 303 297 307 312 316 319 309 304 301 299 295 295 294 294 288 291 292 292 289 293 295 298 301 299 300 303 310 328 343
312 312 312 312 312 312 312 312 312 312 312 313 313 311 311 310 293 294 311 316 318 318 308 309 306 298 291 293 291 289 291 296 295 296 295 295 296 299 298 297 300 300 317 338 339
312 312 312 312 312 312 312 311 311 312 312 312 312 312 311 303 283 296 321 321 316 309 302 305 298 291 289 290 292 288 292 293 295 300 299 298 300 299 299 301 303 303 307 339 337
312 312 312 312 312 312 311 311 311 311 311 312 312 312 304 292 294 304 314 310 306 303 298 301 295 290 286 288 291 290 292 295 296 295 295 298 298 299 301 305 307 307 308 325 338
311 311 311 311 311 311 311 310 310 311 311 312 313 312 299 288 302 304 304 304 303 299 299 299 298 295 290 289 288 290 292 293 294 294 294 295 296 296 301 305 304 304 304 310 338
311 311 311 311 310 311 311 311 311 311 312 313 314 309 299 294 304 303 303 301 302 303 299 299 299 295 294 290 294 294 290 293 293 294 294 295 293 294 300 302 301 302 303 313 337
312 311 311 310 311 311 312 312 312 313 314 314 315 306 294 305 305 304 303 303 304 304 303 303 300 293 290 291 291 288 286 282 290 294 295 294 288 296 299 299 299 301 302 312 335
312 311 311 310 310 311 312 312 313 316 316 315 303 298 292 307 303 307 306 303 303 303 303 306 297 292 291 285 282 284 280 283 288 295 294 293 291 296 298 297 298 299 301 305 330
311 311 310 310 311 312 312 311 312 313 312 310 307 294 297 297 305 307 307 305 302 300 297 295 290 286 284 282 275 279 281 284 285 292 293 291 291 295 298 297 297 298 299 305 322
311 310 310 310 310 311 306 299 296 294 300 295 295 296 298 303 305 302 305 303 301 295 288 290 285 283 285 286 287 285 284 284 287 292 289 291 291 294 297 296 296 296 296 306 318
310 310 311 311 311 310 300 297 298 297 291 299 300 298 301 302 296 300 304 296 293 288 290 287 284 291 291 288 287 285 283 283 287 291 290 289 290 294 297 298 297 297 295 300 310
310 310 311 311 310 301 296 300 302 300 289 295 299 298 299 299 296 298 302 298 293 289 288 287 289 292 291 288 286 285 283 283 283 288 291 289 287 291 297 298 298 297 297 297 305
310 310 310 309 301 297 297 301 300 300 284 290 294 296 299 298 295 304 304 299 295 291 291 289 294 293 291 289 288 282 289 288 286 284 279 290 280 288 295 295 297 296 295 296 308
310 310 310 308 297 295 299 300 298 297 274 292 293 301 299 292 296 298 306 299 291 291 292 289 289 289 289 290 292 286 289 287 287 284 284 286 284 286 293 293 294 296 296 296 306
309 310 309 302 297 300 301 299 298 283 276 287 293 292 291 293 295 298 299 300 298 293 293 292 297 295 292 293 293 292 288 286 287 284 278 284 285 283 288 294 296 297 296 296 299
309 309 305 303 298 300 300 295 282 276 289 287 288 291 290 288 291 293 291 289 288 285 285 289 290 294 296 289 292 289 283 277 276 273 275 285 285 287 292 297 299 298 296 296 299
307 306 304 304 303 301 295 287 278 285 286 292 291 290 286 290 290 291 288 285 291 291 286 283 280 290 295 291 287 286 284 273 267 270 275 286 283 287 297 300 299 297 297 296 301
305 299 298 299 303 298 291 279 279 285 291 289 288 285 285 289 288 290 289 286 291 293 284 284 284 294 296 295 292 287 282 284 279 282 279 284 289 294 296 294 296 296 297 296 309
294 295 295 301 299 296 287 283 284 292 293 291 281 288 284 286 286 287 288 291 292 296 294 287 281 291 294 294 293 289 290 279 280 270 272 282 285 286 291 291 295 294 296 294 317
293 291 297 300 298 291 280 281 289 295 293 288 285 287 286 287 288 286 288 291 294 293 294 290 284 286 290 288 285 288 284 284 284 285 281 279 283 296 296 295 295 296 296 310 322
290 285 298 298 287 284 283 287 293 292 294 291 292 291 288 289 287 287 288 291 297 294 287 291 288 283 284 293 293 290 285 285 276 283 287 284 282 302 303 302 295 303 313 321 323
287 288 296 295 281 280 285 288 292 290 291 291 290 293 293 290 285 289 290 297 297 294 287 292 287 277 278 287 289 287 289 289 288 287 287 282 285 307 302 302 309 316 319 321 320
287 282 287 287 287 282 282 284 286 293 292 293 292 294 292 289 291 288 289 294 295 294 299 296 289 284 277 281 285 285 289 291 289 283 286 289 297 301 305 308 314 316 318 316 316
287 283 286 281 283 282 282 285 285 285 291 291 292 292 290 286 287 288 290 291 293 296 294 294 286 286 288 290 290 289 290 290 288 289 287 292 298 303 307 310 314 315 314 312 311
286 284 287 284 285 284 283 283 284 286 288 287 289 291 291 288 289 286 289 288 288 292 289 292 287 288 286 292 291 289 291 291 292 293 294 293 299 310 311 313 311 311 311 309 309
290 290 292 285 283 281 282 283 285 287 290 292 291 290 290 290 294 293 293 293 292 290 289 289 288 287 282 290 290 284 290 293 293 295 293 292 301 306 305 307 307 308 308 307 307
Wind_Speed
19 20 20 20 20 20 20 20 20 19 18 17 17 17 18 19 21 4 7 11 9 8 5 4 1 2 3 2 3 4 2 7 7 8 4 2 3 1 3 4 1 3 5 4 17
20 20 20 21 21 20 20 20 20 19 18 16 15 15 15 16 12 9 10 7 9 8 3 2 3 2 2 3 3 5 5 8 5 7 3 7 9 4 5 3 4 5 11 5 19
21 21 21 21 21 21 21 21 21 19 17 15 14 13 14 10 5 6 1 6 7 7 4 3 2 2 3 2 3 4 12 4 3 3 5 5 4 5 6 7 8 6 9 11 18
22 23 23 23 22 22 22 22 20 18 16 14 13 11 11 2 3 2 9 12 8 6 2 2 3 4 4 6 2 5 4 4 6 8 6 5 5 7 9 9 4 5 3 6 12
23 23 23 23 24 24 23 21 20 17 16 14 11 8 3 3 10 4 7 8 4 4 1 5 5 4 4 3 3 7 4 5 6 7 9 10 16 9 19 13 11 11 8 9 15
23 24 24 25 25 25 24 21 19 18 15 12 9 4 2 4 4 4 3 4 1 1 4 3 6 8 4 5 6 3 5 5 5 5 5 11 9 5 14 7 10 10 11 8 19
22 24 25 25 26 25 23 19 20 19 15 9 7 4 3 13 3 3 4 4 4 4 2 3 3 3 3 3 5 5 7 8 6 5 5 5 13 25 15 12 15 14 10 9 16
23 23 25 26 25 24 23 22 20 14 6 4 9 4 8 5 4 7 3 4 6 5 5 5 2 3 3 3 6 4 1 2 4 11 7 7 26 24 12 10 16 11 12 7 10
24 24 25 26 25 25 24 22 12 7 10 12 5 4 10 5 3 5 6 4 3 3 5 3 6 5 1 4 3 4 5 4 3 7 5 15 21 1 14 7 13 11 10 7 10
25 25 25 25 25 24 24 13 2 9 7 4 4 1 5 4 4 4 4 3 5 1 2 4 3 2 1 3 6 5 5 4 3 3 10 15 21 13 14 7 9 8 8 8 11
28 27 25 24 23 20 10 2 6 3 2 6 5 5 9 6 6 6 5 5 4 2 5 4 4 12 13 10 11 8 12 11 4 8 5 11 7 9 19 8 9 9 7 9 12
29 28 26 24 21 16 2 2 3 3 8 7 9 6 9 4 5 8 7 5 4 8 3 1 13 17 11 9 12 13 13 17 6 9 12 16 13 8 14 17 8 10 8 11 7
27 27 26 24 21 2 1 5 1 3 1 8 5 4 6 2 7 7 3 2 5 5 7 15 13 10 12 13 12 14 15 10 9 8 14 12 18 15 15 16 7 9 7 9 16
27 26 25 25 1 2 4 4 3 3 5 6 3 2 5 12 4 1 2 3 2 8 6 10 4 13 19 19 17 19 10 11 10 9 9 8 8 9 17 15 12 10 9 11 10
28 26 22 7 3 2 2 6 2 4 4 10 4 2 14 2 8 5 1 0 7 13 4 9 5 7 16 22 20 11 10 12 13 14 3 8 5 8 12 14 10 12 11 10 14
30 26 17 2 0 5 6 3 3 7 5 8 7 17 14 12 3 4 3 1 1 4 7 21 15 13 15 8 15 10 5 9 13 7 10 12 12 5 9 21 17 8 10 11 12
33 27 6 1 4 3 2 4 7 5 6 7 14 16 18 5 7 6 9 5 4 5 4 10 10 6 10 9 9 15 10 4 7 5 6 15 9 13 9 13 20 15 12 11 14
33 17 0 3 5 4 3 7 6 2 10 9 14 19 4 7 7 5 6 4 5 5 5 6 7 6 10 8 7 20 14 7 8 7 7 12 10 8 26 14 9 12 11 12 10
23 4 3 6 3 2 7 6 4 4 9 9 12 4 4 5 6 8 6 4 4 9 4 5 6 1 11 7 10 12 15 4 2 4 4 6 9 3 10 6 10 14 13 16 15
3 4 4 12 4 6 7 2 3 3 6 5 3 4 7 14 10 7 5 4 3 6 7 3 8 9 2 6 11 3 9 3 1 2 5 8 13 7 11 10 15 12 15 10 15
4 4 5 13 4 7 4 4 6 8 4 4 5 8 9 8 9 8 6 8 3 4 4 6 6 4 6 6 8 4 7 2 3 4 3 4 6 3 3 6 20 17 11 17 19
3 4 6 7 7 2 3 4 7 7 1 6 4 6 5 9 7 9 7 7 6 2 6 4 4 4 6 5 4 6 6 5 5 3 5 3 4 1 7 7 7 12 15 17 20
2 3 5 5 5 5 6 7 4 5 6 4 4 5 11 8 10 7 9 4 11 6 2 3 4 2 7 2 2 6 9 4 3 3 3 3 4 4 6 7 11 20 19 19 21
4 6 6 6 2 1 4 5 6 5 6 5 11 11 12 15 11 10 17 9 20 21 15 14 4 3 4 4 3 6 11 6 2 4 7 8 5 7 11 18 17 19 21 20 20
4 1 2 5 3 3 3 3 4 6 4 6 4 10 21 10 17 5 16 15 10 11 7 5 2 3 9 11 5 8 15 12 7 5 7 10 1 8 13 18 19 21 20 22 21
3 3 3 4 3 5 3 3 5 4 5 7 8 23 19 13 12 26 22 12 4 6 4 4 3 4 5 2 6 6 11 8 9 13 12 12 5 10 14 16 18 18 21 22 21
2 2 1 4 4 3 3 2 8 11 8 12 16 21 16 13 21 25 16 10 8 6 4 2 3 3 4 4 9 5 5 1 3 12 4 7 7 19 17 17 15 17 18 22 22
Wind_Direction
347 344 341 339 338 336 334 331 329 329 324 321 322 321 322 323 317 351 258 223 198 250 305 319 42 51 63 213 197 136 221 229 224 181 213 327 137 212 207 229 314 223 255 272 141
345 340 338 336 334 331 328 326 326 324 321 320 320 319 318 318 312 274 247 261 245 283 351 355 320 38 135 246 232 171 198 227 190 185 215 245 240 300 296 281 253 277 295 183 151
341 337 335 332 330 328 326 323 325 323 320 319 316 318 318 327 326 253 191 200 259 274 295 247 184 143 169 175 230 230 238 247 326 229 211 256 262 223 220 239 221 220 334 174 165
338 335 332 330 328 326 325 324 324 321 317 316 310 308 312 331 334 126 157 13 344 311 307 114 86 144 176 194 233 284 285 249 277 317 336 283 317 295 228 237 262 284 320 171 193
335 332 330 328 328 326 326 324 322 317 314 305 299 292 352 346 252 265 339 350 356 342 233 165 147 155 194 205 206 228 232 309 325 335 306 280 269 264 267 272 279 279 264 209 197
333 330 329 329 329 327 326 325 320 315 307 292 275 263 108 305 236 244 307 343 187 32 339 165 192 201 218 213 187 247 274 274 272 307 305 276 292 306 258 225 246 237 257 257 197
330 328 329 331 331 329 324 323 318 311 300 279 230 167 238 244 258 314 323 224 205 172 234 231 234 193 170 295 242 257 293 294 233 191 243 253 271 238 243 263 274 269 269 287 186
331 330 331 333 332 328 323 323 321 311 295 140 164 174 252 241 254 286 186 276 219 206 215 227 193 240 184 240 353 303 259 300 286 169 217 187 257 258 202 208 235 236 259 249 181
331 331 332 334 333 328 323 324 329 82 108 125 128 123 273 307 273 252 176 236 193 172 227 236 121 199 216 145 339 254 243 220 322 206 194 196 250 209 226 220 238 220 232 227 194
332 332 335 334 333 327 326 326 174 93 111 150 100 337 270 309 291 258 192 229 254 326 279 161 90 184 7 118 233 207 233 219 210 265 208 241 256 295 302 241 240 233 218 222 196
334 336 337 335 333 330 344 35 5 354 148 227 242 252 280 269 283 266 176 172 186 139 195 208 161 220 218 208 240 252 261 260 264 284 331 256 306 289 282 270 276 260 209 213 206
334 336 335 331 330 329 35 52 229 223 314 249 254 252 270 243 289 282 142 185 167 225 161 339 233 237 232 208 229 240 251 255 266 260 275 282 284 291 268 257 221 233 191 215 196
334 335 333 330 325 62 313 244 72 131 29 297 234 232 261 300 299 276 192 213 221 253 206 231 234 221 235 232 228 227 232 261 250 269 276 280 283 271 256 245 222 244 194 195 188
333 334 335 330 65 312 282 323 71 79 54 279 307 242 328 323 276 278 152 228 208 260 255 251 243 246 240 233 219 240 222 236 240 237 248 202 281 236 229 226 216 234 216 175 178
333 332 333 326 284 333 300 333 263 61 348 315 298 285 314 214 282 281 72 87 261 268 208 243 215 229 237 237 215 230 209 208 227 223 243 245 251 260 222 210 202 222 223 171 172
332 333 334 100 319 247 309 307 49 41 291 332 337 323 327 316 250 276 249 140 265 276 242 255 257 260 227 220 216 222 186 220 240 200 229 217 210 255 200 202 197 201 202 162 169
331 332 329 164 288 315 325 50 32 77 359 298 316 323 322 279 304 320 317 271 250 294 252 300 267 204 195 223 228 202 152 179 217 196 224 193 214 246 248 216 202 195 190 148 169
329 328 191 222 289 322 60 47 48 291 296 300 313 307 279 328 305 298 282 270 231 218 284 285 312 150 168 197 193 188 182 168 184 173 215 238 220 224 240 248 202 159 182 135 157
327 339 8 326 334 62 66 51 212 281 320 310 318 314 288 294 291 314 280 249 237 179 238 282 252 128 190 190 196 172 213 203 320 208 154 186 246 238 226 189 163 156 168 160 162
348 346 302 332 340 55 67 243 240 240 318 303 295 331 304 309 320 330 304 242 265 214 181 280 280 265 354 171 213 219 152 181 268 214 190 209 213 218 161 185 160 163 176 136 145
32 36 278 342 58 48 99 245 282 295 353 298 267 283 273 300 290 309 273 296 266 311 278 242 222 331 128 197 187 201 176 206 146 249 277 174 225 158 150 171 164 175 147 139 139
5 35 313 352 49 39 346 295 280 290 51 278 280 271 264 291 283 283 259 238 266 63 311 254 277 248 234 11 285 179 160 189 145 231 230 253 250 235 213 200 147 133 134 132 131
20 275 326 45 60 333 320 303 271 312 307 295 282 249 271 301 309 268 278 283 309 314 319 329 269 358 339 26 18 159 228 171 108 359 297 344 271 28 120 128 141 129 129 126 125
42 359 338 33 72 103 326 269 302 292 281 305 279 290 294 306 288 279 288 311 310 301 288 221 232 242 220 233 162 185 168 110 89 209 322 274 126 93 127 133 132 125 122 125 117
26 351 174 320 325 334 243 271 305 317 298 303 277 294 316 304 307 265 309 317 305 318 341 306 249 229 260 256 261 151 153 156 194 234 261 323 124 131 139 139 128 123 123 113 113
63 22 336 273 295 320 347 300 297 298 277 285 290 309 311 295 299 304 313 317 290 313 321 318 304 345 298 160 180 143 148 191 226 245 228 274 183 110 97 105 112 117 118 115 112
323 338 292 283 315 343 243 274 287 323 273 243 291 313 311 310 309 292 289 263 257 298 308 280 305 353 343 17 115 78 58 287 12 260 208 236 117 100 94 96 103 110 113 114 117